C/2017 F2 ( PanSTARRS )

Japanese version
Home page
Updated on July 8, 2017

---------------------------------------------------------------------

* Profile

Discovery Date March 31, 2017
Magnitude 21.2 mag
Discoverer Pan-STARRS 1 telescope (Haleakala)

* Pictures

* Orbital Elements

Epoch 2017 Nov. 23.0 TT = JDT 2458080.5
T 2017 Nov. 22.53467 TT                                 MPCW
q   6.9295942            (2000.0)            P               Q
z  -0.0000186      Peri.  134.57377     -0.87615474     -0.23207015
 +/-0.0000905      Node    38.71894     -0.21812995     -0.59071756
e   1.0001287      Incl.   42.48834     +0.42985136     -0.77278471
From 39 observations 2017 Mar. 31-May 26, mean residual 0".5.

* Magnitudes Graph

        m1 = 7.5 + 5 log d + 10.0 log r

---------------------------------------------------------------------

The orbital elements are published on M.P.E.C. 2017-N58.
The magnitudes graphs are made with Comet for Windows.

---------------------------------------------------------------------

Copyright(C) Seiichi Yoshida (comet@aerith.net). All rights reserved.